This is the latest recevied weather packets stored in our database for station/object DL6JOE-10. If no packets are shown the sender has not sent any weather packets the latest 10 day(s).
| Time | Temp. | Humidity | Pressure | Rain* | Wind** | Luminosity | Snow |
|---|---|---|---|---|---|---|---|
| 1777424744 | 15.56° C | 34% | 964.6 hPa | - | - | - | - |
| 1777423844 | 16.11° C | 33% | 964.6 hPa | - | - | - | - |
| 1777422944 | 16.11° C | 34% | 964.7 hPa | - | - | - | - |
| 1777422044 | 16.67° C | 33% | 964.7 hPa | - | - | - | - |
| 1777421144 | 16.67° C | 33% | 964.7 hPa | - | - | - | - |
| 1777420244 | 16.67° C | 33% | 964.5 hPa | - | - | - | - |
| 1777419343 | 16.67° C | 33% | 964.6 hPa | - | - | - | - |
| 1777418443 | 17.22° C | 33% | 964.6 hPa | - | - | - | - |
| 1777417543 | 17.22° C | 33% | 964.6 hPa | - | - | - | - |
| 1777416643 | 17.22° C | 32% | 964.6 hPa | - | - | - | - |
| 1777415743 | 17.78° C | 32% | 964.5 hPa | - | - | - | - |
| 1777414843 | 17.78° C | 32% | 964.5 hPa | - | - | - | - |
| 1777413943 | 17.78° C | 31% | 964.3 hPa | - | - | - | - |
| 1777413043 | 18.33° C | 31% | 964.4 hPa | - | - | - | - |
| 1777412143 | 18.33° C | 31% | 964.3 hPa | - | - | - | - |
| 1777411243 | 18.33° C | 31% | 964.1 hPa | - | - | - | - |
| 1777410343 | 18.89° C | 30% | 964.1 hPa | - | - | - | - |
| 1777409443 | 18.89° C | 30% | 964 hPa | - | - | - | - |
| 1777408542 | 19.44° C | 30% | 963.9 hPa | - | - | - | - |
| 1777407642 | 19.44° C | 30% | 964 hPa | - | - | - | - |
| 1777406742 | 19.44° C | 30% | 964 hPa | - | - | - | - |
| 1777405842 | 20° C | 29% | 963.8 hPa | - | - | - | - |
| 1777404942 | 20° C | 30% | 963.7 hPa | - | - | - | - |
| 1777404042 | 20° C | 29% | 963.6 hPa | - | - | - | - |
| 1777403142 | 20.56° C | 29% | 963.4 hPa | - | - | - | - |
* Rain since midnight (hover to see other rain measurements)
** Current wind speed in m/s (hover to see current wind gust speed)